| time (UTC) | temp C | wind direction | speed KPH | gust KPH | rain 1hr cm | rain 24hr cm | rain mn cm | humidity % | barometer mb |
| 20260510160914 | 27 | 98 | 1.6 | 4.8 | 0.00 | 0.00 | 0.00 | 40 | 1013.9 |
| 20260510150853 | 26 | 203 | 1.6 | 6.4 | 0.00 | 0.00 | 0.00 | 45 | 1014.3 |
| 20260510140842 | 25 | 342 | 0.0 | 3.2 | 0.00 | 0.00 | 0.00 | 50 | 1014.0 |
| 20260510130850 | 22 | 244 | 1.6 | 1.6 | 0.00 | 0.00 | 0.00 | 63 | 1014.1 |
| 20260510120856 | 15 | 225 | 1.6 | 1.6 | 0.00 | 0.00 | 0.00 | 92 | 1013.1 |
| 20260510110842 | 12 | 223 | 0.0 | 0.0 | 0.00 | 0.00 | 0.00 | 95 | 1012.5 |
| 20260510100904 | 12 | 238 | 0.0 | 0.0 | 0.00 | 0.00 | 0.00 | 94 | 1011.9 |
| 20260510090856 | 12 | 193 | 0.0 | 0.0 | 0.00 | 0.00 | 0.00 | 93 | 1011.4 |
| 20260510080848 | 13 | 193 | 0.0 | 0.0 | 0.00 | 0.00 | 0.00 | 92 | 1011.0 |
| 20260510070856 | 15 | 194 | 0.0 | 0.0 | 0.00 | 0.00 | 0.00 | 90 | 1010.9 |
| 20260510060841 | 16 | 189 | 3.2 | 6.4 | 0.00 | 0.00 | 0.00 | 85 | 1010.9 |
| 20260510050852 | 17 | 196 | 1.6 | 3.2 | 0.00 | 0.00 | 0.00 | 81 | 1010.9 |
| 20260510040904 | 17 | 194 | 3.2 | 9.7 | 0.00 | 0.00 | 0.00 | 78 | 1010.8 |
| 20260510030844 | 18 | 214 | 1.6 | 4.8 | 0.00 | 0.00 | 0.00 | 75 | 1010.5 |
| 20260510020901 | 17 | 211 | 3.2 | 3.2 | 0.00 | 0.00 | 0.00 | 74 | 1010.1 |
| 20260510010913 | 18 | 227 | 1.6 | 1.6 | 0.00 | 0.00 | 0.00 | 68 | 1009.3 |
| 20260510000859 | 20 | 175 | 1.6 | 1.6 | 0.00 | 0.00 | 0.00 | 63 | 1008.8 |
| 20260509230902 | 22 | 187 | 6.4 | 6.4 | 0.00 | 0.00 | 0.00 | 54 | 1008.6 |
| 20260509220853 | 23 | 198 | 3.2 | 6.4 | 0.00 | 0.00 | 0.00 | 54 | 1008.4 |
| 20260509210903 | 24 | 175 | 6.4 | 9.7 | 0.00 | 0.00 | 0.00 | 52 | 1008.1 |
| 20260509200858 | 25 | 167 | 8.0 | 8.0 | 0.00 | 0.00 | 0.00 | 48 | 1008.0 |
| 20260509190845 | 25 | 180 | 3.2 | 17.7 | 0.00 | 0.00 | 0.00 | 49 | 1008.8 |
| 20260509180842 | 23 | 182 | 3.2 | 8.0 | 0.00 | 0.00 | 0.00 | 51 | 1009.6 |
| 20260509170849 | 23 | 183 | 4.8 | 17.7 | 0.00 | 0.00 | 0.00 | 51 | 1009.9 |